Weather in Canillo

Andorra     42°33′59″N   1°35′52″E
temp.,
°C
wind,
m/s
gust,
m/s
humid.,
%
clouds,
%
prec.,
mm/h
press.,
hPa
HPBL,
m
24 january, sun
sun2401:00−1ssw24100100 2.0 999201
04:00−1wnw31396100 2.1 10001117
07:00−4n479191 4.7 1004393
10:00−5n478828 0.2 1008468
13:00−1nnw348217 0.2 1008639
16:00−1nnw238435 0.0 1008456
19:00−6nne228650 0.0 100926
22:00−5n3382100 0.0 101032
25 january, mon
mon2501:00−5n229186 0.1 100932
04:00−6n238761 0.0 100930
07:00−5n239150 0.3 100943
10:00−2nne229057 0.1 101089
13:00+1nw229278 0.1 1010410
16:000n348976 0.1 1010429
19:00−4n349288 0.1 1013156
22:00−6n459151 0.1 1017130
26 january, tue
tue2601:00−8nne449040 0.1 101979
04:00−8nne44716 0.0 102046
07:00−7nne44684 0.0 102156
10:00−2n337416 0.0 102378
13:00+2nw128518 0.0 1022319
16:00+2nw128960 0.0 1020218
19:00−3nne337832 0.0 102228
22:00−2n448423 0.0 102260
27 january, wed
wed2701:00+1n339453 0.1 102277
04:00+1nnw239692 0.5 1021100
07:00+2n339995 3.1 1021102
10:00+2nnw129998 1.1 102247
13:00+4n239798 1.7 1022175
16:00+3nne239799 0.0 1022134
19:000nne338995 0.0 102354
22:00+2nne338693 0.0 102344
28 january, thu
thu2801:00+1nne229096 0.0 102324
04:00+1nne128448 0.0 102222
07:00+2nne127269 0.0 102122
10:00+4n227894 0.0 102122
13:00+7wnw119183 0.0 1020177
16:00+6w119596 0.0 101928
19:00+2nne228197 0.0 102022
22:00+1ne118446 0.0 102022